Biarritz, France

12:35 AM CEST on April 30, 2017 (GMT +0200)
Bayonne-Anglet

Weather History for LFBZ - October, 2012

Change the Weather History Date:

Friday, October 5, 2012

  Actual Average Record
Temperature  
Mean Temperature 68 °F -  
Max Temperature 84 °F 65 °F 86 °F (1997)
Min Temperature 53 °F 51 °F 46 °F (2005)
Cooling Degree Days 4    
Growing Degree Days 18 (Base 50)    
Moisture  
Dew Point 55 °F    
Average Humidity 67    
Maximum Humidity 100    
Minimum Humidity 35    
Precipitation  
Precipitation 0.00 in - - ()
Sea Level Pressure  
Sea Level Pressure 30.00 in    
Wind  
Wind Speed 4 mph ()    
Max Wind Speed 8 mph    
Max Gust Speed -    
Visibility 6.1 miles    
Events Fog    
Averages and records for this station are not official NWS values.
T = Trace of Precipitation, MM = Missing Value Source: Averaged Metar Reports

Daily Weather History Graph

Daily Weather History Graph

Search for Another Location

Airport or City:

Trip Planner

Search our weather history database for the weather conditions in past years. The results will help you decide how hot, cold, wet, or windy it might be!

Date:

Astronomy

Oct. 05, 2012 Rise Set
Actual Time 8:08 AM CEST 7:39 PM CEST
Civil Twilight 7:39 AM CEST 8:08 PM CEST
Nautical Twilight 7:06 AM CEST 8:41 PM CEST
Astronomical Twilight 6:33 AM CEST 9:14 PM CEST
Moon 10:42 PM CEST (10/5) 1:12 PM CEST (10/5)
Length of Visible Light 12h 28m
Length of Day
11h 31m
Waning Gibbous, 76% of the Moon is Illuminated
Oct 5
Waning Gibbous
Oct 8
Last Quarter
Oct 15
New
Oct 22
First Quarter
Oct 29
Full

Hourly Weather History & Observations

Time (CEST) Temp. Heat Index Dew Point Humidity Pressure Visibility Wind Dir Wind Speed Gust Speed Precip Events Conditions
12:00 AM 59.0 °F - 55.4 °F 88% 30.04 in 6.2 mi SE 4.6 mph - N/A   Unknown
12:30 AM 59.0 °F - 55.4 °F 88% 30.04 in 6.2 mi SSE 5.8 mph - N/A   Unknown
1:00 AM 59.0 °F - 55.4 °F 88% 30.04 in 6.2 mi SSE 5.8 mph - N/A   Unknown
1:30 AM 59.0 °F - 55.4 °F 88% 30.04 in 6.2 mi SE 5.8 mph - N/A   Unknown
2:00 AM 59.0 °F - 55.4 °F 88% 30.04 in 6.2 mi SE 4.6 mph - N/A   Unknown
2:30 AM 57.2 °F - 53.6 °F 88% 30.04 in 6.2 mi SE 4.6 mph - N/A   Unknown
3:00 AM 57.2 °F - 53.6 °F 88% 30.01 in 6.2 mi SE 4.6 mph - N/A   Unknown
3:30 AM 55.4 °F - 53.6 °F 94% 30.01 in 6.2 mi SE 4.6 mph - N/A   Unknown
4:00 AM 55.4 °F - 53.6 °F 94% 30.01 in 6.2 mi East 3.5 mph - N/A   Unknown
4:30 AM 55.4 °F - 53.6 °F 94% 30.01 in 6.2 mi East 2.3 mph - N/A   Unknown
5:00 AM 55.4 °F - 53.6 °F 94% 30.01 in 6.2 mi East 3.5 mph - N/A   Unknown
5:30 AM 55.4 °F - 53.6 °F 94% 30.01 in 6.2 mi East 2.3 mph - N/A   Unknown
6:00 AM 55.4 °F - 53.6 °F 94% 30.01 in 3.7 mi East 2.3 mph - N/A Fog Fog
6:30 AM 53.6 °F - 51.8 °F 94% 30.01 in 6.2 mi East 3.5 mph - N/A Fog Shallow Fog
7:00 AM 53.6 °F - 53.6 °F 100% 30.01 in 6.2 mi East 3.5 mph - N/A Fog Shallow Fog
7:30 AM 53.6 °F - 51.8 °F 94% 30.01 in 6.2 mi SSE 3.5 mph - N/A Fog Shallow Fog
8:00 AM 55.4 °F - 53.6 °F 94% 30.01 in - SSE 5.8 mph - N/A   Clear
8:30 AM 53.6 °F - 51.8 °F 94% 30.01 in - SE 5.8 mph - N/A   Clear
9:00 AM 55.4 °F - 53.6 °F 94% 30.01 in - SSE 4.6 mph - N/A   Clear
9:30 AM 60.8 °F - 55.4 °F 82% 30.01 in - SE 3.5 mph - N/A   Clear
10:00 AM 62.6 °F - 55.4 °F 77% 30.01 in - Variable 3.5 mph - N/A   Clear
10:30 AM 64.4 °F - 57.2 °F 77% 30.01 in - East 3.5 mph - N/A   Clear
11:00 AM 69.8 °F - 57.2 °F 64% 30.04 in - Variable 2.3 mph - N/A   Clear
11:30 AM 73.4 °F - 57.2 °F 57% 30.04 in - Variable 1.2 mph - N/A   Clear
12:00 PM 75.2 °F - 57.2 °F 53% 30.01 in - Variable 2.3 mph - N/A   Clear
12:30 PM 78.8 °F - 57.2 °F 47% 30.01 in - SSE 6.9 mph - N/A   Clear
1:00 PM 80.6 °F 80.8 °F 57.2 °F 45% 30.01 in - SSW 5.8 mph - N/A   Clear
1:30 PM 80.6 °F 80.5 °F 55.4 °F 42% 30.01 in - South 6.9 mph - N/A   Clear
2:00 PM 82.4 °F 81.7 °F 55.4 °F 39% 30.01 in - Variable 5.8 mph - N/A   Clear
2:30 PM 82.4 °F 81.7 °F 55.4 °F 39% 29.98 in - Variable 5.8 mph - N/A   Clear
3:00 PM 84.2 °F 82.8 °F 53.6 °F 35% 29.98 in - SSW 8.1 mph - N/A   Clear
3:30 PM 84.2 °F 82.8 °F 53.6 °F 35% 29.98 in - Variable 6.9 mph - N/A   Clear
4:00 PM 84.2 °F 83.0 °F 55.4 °F 37% 29.98 in - South 5.8 mph - N/A   Clear
4:30 PM 84.2 °F 82.8 °F 53.6 °F 35% 29.98 in - South 5.8 mph - N/A   Clear
5:00 PM 84.2 °F 82.8 °F 53.6 °F 35% 29.95 in - Variable 4.6 mph - N/A   Clear
5:30 PM 84.2 °F 83.0 °F 55.4 °F 37% 29.95 in - South 3.5 mph - N/A   Clear
6:00 PM 84.2 °F 83.5 °F 57.2 °F 40% 29.95 in - Variable 3.5 mph - N/A   Clear
6:30 PM 84.2 °F 83.5 °F 57.2 °F 40% 29.95 in - Variable 2.3 mph - N/A   Clear
7:00 PM 82.4 °F 82.0 °F 57.2 °F 42% 29.98 in - Variable 1.2 mph - N/A   Clear
7:30 PM 80.6 °F 80.8 °F 57.2 °F 45% 29.98 in - Variable 2.3 mph - N/A   Clear
8:00 PM 77.0 °F - 57.2 °F 50% 29.98 in - ESE 2.3 mph - N/A   Clear
8:30 PM 73.4 °F - 59.0 °F 61% 29.98 in 6.2 mi SE 4.6 mph - N/A   Unknown
9:00 PM 71.6 °F - 55.4 °F 57% 29.98 in 6.2 mi SSE 3.5 mph - N/A   Unknown
9:30 PM 69.8 °F - 53.6 °F 56% 30.01 in 6.2 mi SE 5.8 mph - N/A   Unknown
10:00 PM 68.0 °F - 53.6 °F 60% 30.01 in 6.2 mi SE 4.6 mph - N/A   Unknown
10:30 PM 66.2 °F - 53.6 °F 64% 30.01 in 6.2 mi SE 4.6 mph - N/A   Unknown
11:00 PM 68.0 °F - 53.6 °F 60% 30.01 in 6.2 mi SSE 4.6 mph - N/A   Unknown
11:30 PM 68.0 °F - 53.6 °F 60% 30.01 in 6.2 mi SSE 5.8 mph - N/A   Unknown